This is the latest recevied weather packets stored in our database for station/object N0KWA. If no packets are shown the sender has not sent any weather packets the latest 10 day(s).
| Time | Temp. | Humidity | Pressure | Rain* | Wind** | Luminosity | Snow |
|---|---|---|---|---|---|---|---|
| 1788203011 | 28.89° C | 95% | 1018.5 hPa | 1.27 mm | - | 69 W/m² | - |
| 1788202711 | 28.89° C | 93% | 1018.7 hPa | 0 mm | - | 62 W/m² | - |
| 1788202407 | 28.89° C | 92% | 1018.6 hPa | 0 mm | - | 32 W/m² | - |
| 1788202105 | 28.89° C | 92% | 1018.5 hPa | 0 mm | - | 29 W/m² | - |
| 1788201802 | 28.89° C | 92% | 1018.5 hPa | 0 mm | - | 68 W/m² | - |
| 1788201502 | 28.89° C | 91% | 1018.7 hPa | 0 mm | - | 18 W/m² | - |
| 1788201201 | 28.89° C | 90% | 1018.7 hPa | 0 mm | - | 6 W/m² | - |
| 1788200900 | 28.89° C | 89% | 1018.7 hPa | 0 mm | - | 8 W/m² | - |
| 1788200596 | 29.44° C | 89% | 1018.7 hPa | 0 mm | - | 13 W/m² | - |
| 1788200291 | 30° C | 88% | 1018.7 hPa | 0 mm | - | 30 W/m² | - |
| 1788199986 | 30.56° C | 84% | 1018.8 hPa | 0 mm | - | 22 W/m² | - |
| 1788199681 | 31.11° C | 80% | 1018.9 hPa | 0 mm | - | 18 W/m² | - |
| 1788199376 | 31.67° C | 76% | 1018.8 hPa | 0 mm | - | 20 W/m² | - |
| 1788199075 | 31.67° C | 76% | 1018.7 hPa | 0 mm | - | 50 W/m² | - |
| 1788198772 | 31.67° C | 78% | 1018.8 hPa | 0 mm | - | 87 W/m² | - |
| 1788198467 | 31.67° C | 77% | 1018.9 hPa | 0 mm | - | 63 W/m² | - |
| 1788198163 | 31.11° C | 77% | 1018.9 hPa | 0 mm | - | 65 W/m² | - |
| 1788197861 | 31.67° C | 79% | 1019 hPa | 0 mm | - | 109 W/m² | - |
| 1788197556 | 31.67° C | 76% | 1019.1 hPa | 0 mm | - | 42 W/m² | - |
| 1788197251 | 31.67° C | 76% | 1019.1 hPa | 0 mm | - | 106 W/m² | - |
| 1788196946 | 31.11° C | 80% | 1019.3 hPa | 0 mm | - | 104 W/m² | - |
| 1788196641 | 31.11° C | 79% | 1019.4 hPa | 0 mm | - | 80 W/m² | - |
| 1788196338 | 30.56° C | 82% | 1019.2 hPa | 0 mm | - | 139 W/m² | - |
| 1788196035 | 30.56° C | 82% | 1019.4 hPa | 0 mm | - | 66 W/m² | - |
| 1788195731 | 30.56° C | 79% | 1019.6 hPa | 0 mm | - | 38 W/m² | - |
* Rain latest hour (hover to see other rain measurements)
** Current wind speed in m/s (hover to see current wind gust speed)